[[{"header":{"parameterUnit":"m.s-1","parameterCategory":1,"la1":30.2991,"la2":30.254,"lo1":-89.0895,"lo2":-89.0444,"dy":0.0017,"dx":0.0017,"nx":28,"ny":28,"refTime":"2023-10-21T21:00:00:Z","depth":0,"parameterNumber":2,"parameterNumberName":"U-component_of_WINDS"},"data":[0,0,0,0,0,0,0,0,0,0,0,0,0,0,0,0,0,0,0,0,0,0,0,0,0,0,0,0,0,0,0,0,0,0,0,0,0,0,0,0,0,0,0,0,0,0,0,0,0,0,0,0,0,0,0,0,0,0,0.5952,0.5952,0,0.603,0.6031,0.6032,0.6054,0.6053,0.6053,0.6053,0.6134,0.6137,0.6139,0,0,0,0,0,0,0,0,0,0,0,0,0,0.5822,0.5824,0.5951,0.5952,0.5953,0.603,0.6031,0.6032,0.6054,0.6053,0.6053,0.6052,0.6133,0.6136,0.6139,0,0,0,0,0,0,0,0,0,0,0,0,0,0.5887,0.5825,0.5951,0.5974,0.5976,0.603,0.6031,0.6032,0.6054,0.6053,0.6053,0.6052,0.6132,0.6136,0.614,0.6177,0,0,0.6152,0.6153,0,0,0,0,0,0,0,0,0.5883,0.5892,0.5969,0.5972,0.5975,0.6031,0.6015,0.6081,0.6054,0.6025,0.6053,0.6052,0.6101,0.6107,0.6123,0.6181,0.6184,0.6152,0.6154,0.6156,0.6157,0,0,0,0,0,0,0,0.5879,0.5888,0.5983,0.597,0.5974,0.598,0.5989,0.6028,0.6065,0.6027,0.6029,0.6038,0.6102,0.6119,0.6125,0.6186,0.6152,0.6155,0.6158,0.6159,0.6279,0.628,0,0,0,0,0,0,0.587,0.5885,0.598,0.5985,0.5927,0.5983,0.5992,0.6014,0.6065,0.6072,0.6038,0.6039,0.6113,0.6121,0.6128,0.6176,0.6156,0.616,0.6162,0.6278,0.6279,0.628,0,0,0,0,0,0,0.5867,0.5879,0.5977,0.5935,0.5948,0.5986,0.601,0.6016,0.6033,0.6073,0.608,0.6049,0.6113,0.6123,0.6165,0.6179,0.6161,0.6165,0.6277,0.6279,0.628,0.6271,0,0,0,0,0,0,0.5864,0.5877,0.5891,0.5935,0.595,0.6012,0.6011,0.6018,0.604,0.6041,0.6085,0.6092,0.6113,0.6159,0.6169,0.6184,0.6168,0.6276,0.6278,0.6279,0.627,0.6272,0.6273,0,0,0,0,0,0.5859,0.5886,0.5892,0.5904,0.5969,0.6013,0.6021,0.6045,0.6041,0.6056,0.6082,0.6091,0.6176,0.6163,0.6174,0.6191,0.6275,0.6277,0.6279,0.627,0.6272,0.6273,0,0,0,0,0,0,0.5843,0.5892,0.5899,0.5941,0.5973,0.6016,0.6035,0.6046,0.6079,0.6078,0.6106,0.6116,0.6157,0.6178,0.6163,0.623,0.6226,0.623,0.6215,0.6217,0.6218,0.6213,0.6171,0,0,0,0,0,0.5844,0.5875,0.5917,0.595,0.5965,0.5998,0.6017,0.6033,0.6066,0.608,0.6109,0.6141,0.6176,0.6197,0.6231,0.6274,0.6284,0.6291,0.6292,0.6293,0.6297,0.6322,0.6325,0.6287,0.6287,0.6286,0,0,0.5847,0.5878,0.5896,0.5947,0.5973,0.6005,0.6008,0.6042,0.6066,0.6085,0.6127,0.6149,0.6187,0.623,0.625,0.6249,0.631,0.6296,0.6296,0.6299,0.6324,0.6328,0.6331,0.6288,0.6288,0.6287,0,0,0.5869,0.5895,0.5926,0.5952,0.5991,0.6013,0.602,0.6063,0.6078,0.612,0.6135,0.6165,0.6223,0.625,0.6271,0.6305,0.6314,0.6315,0.6323,0.6347,0.635,0.6353,0.6365,0.6369,0.6318,0.6318,0.6318,0,0.5868,0.5916,0.5941,0.5974,0.5996,0.6015,0.6047,0.6071,0.6119,0.6135,0.6133,0.6207,0.6234,0.6283,0.6291,0.6308,0.6318,0.631,0.6347,0.635,0.6353,0.6366,0.637,0.6318,0.6318,0.6318,0.6318,0,0.5913,0.5947,0.5967,0.6013,0.6038,0.607,0.61,0.6123,0.6136,0.6158,0.6201,0.6235,0.6276,0.6289,0.6302,0.6341,0.6339,0.6342,0.6338,0.6357,0.6369,0.6373,0.6318,0.6318,0.6318,0.6318,0,0,0.5927,0.5987,0.5994,0.6015,0.606,0.6087,0.612,0.616,0.6179,0.6212,0.6242,0.6291,0.6294,0.6318,0.6335,0.6356,0.6381,0.6357,0.6358,0.6361,0.6427,0.6424,0.6429,0.6388,0.6389,0.639,0.6424,0,0.5955,0.6015,0.6038,0.6087,0.6119,0.6137,0.6167,0.6198,0.622,0.625,0.6274,0.6309,0.631,0.6325,0.6347,0.6374,0.6395,0.6371,0.6416,0.6418,0.6406,0.6436,0.6433,0.6463,0.6429,0.6429,0.643,0,0.5995,0.6028,0.6081,0.6123,0.6137,0.6163,0.6202,0.6231,0.6267,0.6281,0.6309,0.6324,0.6361,0.6355,0.6406,0.639,0.641,0.6426,0.6427,0.6433,0.6425,0.6442,0.6473,0.6478,0.6437,0.6437,0.6436,0,0.6,0.6058,0.6097,0.6115,0.6165,0.6183,0.6205,0.624,0.6263,0.6297,0.6313,0.6351,0.6372,0.6402,0.6428,0.6421,0.6477,0.6473,0.6491,0.649,0.6501,0.65,0.6537,0.6514,0.6514,0.6514,0.6514,0,0.6029,0.606,0.61,0.6124,0.616,0.6187,0.6222,0.6245,0.6277,0.6306,0.6325,0.6352,0.6385,0.6416,0.6437,0.6477,0.6486,0.65,0.6505,0.6498,0.6496,0.6511,0.651,0.6515,0.6515,0.6514,0.6514,0,0.604,0.6068,0.6112,0.6156,0.6168,0.6193,0.623,0.6255,0.6278,0.6315,0.6325,0.6361,0.64,0.6428,0.6478,0.6492,0.6535,0.654,0.6523,0.6525,0.6542,0.654,0.6589,0.6597,0.6568,0.6569,0.6569,0,0.6057,0.6081,0.6128,0.6149,0.617,0.6204,0.6227,0.6255,0.6279,0.6323,0.6342,0.6382,0.6415,0.6476,0.6507,0.6546,0.6552,0.6567,0.6558,0.6551,0.6553,0.6551,0.6554,0.6568,0.6568,0.6568,0.6568,0,0.6083,0.6096,0.6129,0.6167,0.6195,0.6226,0.6258,0.6274,0.6308,0.6334,0.6373,0.6399,0.645,0.649,0.6532,0.6555,0.6568,0.6571,0.6577,0.6571,0.656,0.6566,0.6526,0.657,0.6569,0.6569,0.6569,0.6569,0.6098,0.6121,0.6158,0.6194,0.6221,0.6251,0.6276,0.6302,0.6335,0.6379,0.6394,0.6434,0.6471,0.6529,0.6553,0.6586,0.6586,0.6595,0.6597,0.6599,0.6599,0.6554,0.6593,0.6593,0.6593,0.6593,0.6593,0,0.6125,0.615,0.6183,0.6228,0.6256,0.6266,0.6302,0.6325,0.6361,0.6394,0.6427,0.6473,0.6511,0.6546,0.6586,0.6606,0.6613,0.6616,0.6615,0.662,0.6596,0.6587,0.661,0.661,0.661,0.661,0.661,0.661,0.6143,0.6183,0.62,0.6254,0.6279,0.6319,0.6339,0.6366,0.6393,0.6443,0.6476,0.6498,0.6532,0.6575,0.6611,0.6621,0.6635,0.6636,0.6647,0.6624,0.6622,0.662,0.6611,0.6639,0.6639,0.6669,0.6669,0.6669]},{"header":{"parameterUnit":"m.s-1","parameterCategory":1,"la1":30.2991,"la2":30.254,"lo1":-89.0895,"lo2":-89.0444,"dy":0.0017,"dx":0.0017,"nx":28,"ny":28,"refTime":"2023-10-21T21:00:00:Z","depth":0,"parameterNumber":3,"parameterNumberName":"V-component_of_WINDS"},"data":[0,0,0,0,0,0,0,0,0,0,0,0,0,0,0,0,0,0,0,0,0,0,0,0,0,0,0,0,0,0,0,0,0,0,0,0,0,0,0,0,0,0,0,0,0,0,0,0,0,0,0,0,0,0,0,0,0,0,1.6702,1.6702,0,1.6679,1.6679,1.6679,1.6639,1.6639,1.6638,1.6637,1.6614,1.6614,1.6614,0,0,0,0,0,0,0,0,0,0,0,0,0,1.6712,1.6712,1.6702,1.6702,1.6701,1.6679,1.6679,1.6679,1.664,1.6639,1.6638,1.6637,1.6614,1.6614,1.6614,0,0,0,0,0,0,0,0,0,0,0,0,0,1.67,1.6712,1.6702,1.6679,1.6677,1.6679,1.6679,1.6679,1.664,1.6639,1.6637,1.6636,1.6614,1.6614,1.6614,1.6637,0,0,1.6614,1.6615,0,0,0,0,0,0,0,0,1.6701,1.67,1.6683,1.6681,1.6678,1.6661,1.6674,1.6665,1.664,1.6654,1.6637,1.6636,1.6631,1.6629,1.6627,1.6636,1.6635,1.6614,1.6615,1.6615,1.6615,0,0,0,0,0,0,0,1.6702,1.6701,1.6693,1.6683,1.668,1.667,1.6667,1.6672,1.6649,1.6653,1.665,1.6647,1.6629,1.6627,1.6627,1.6635,1.6614,1.6615,1.6615,1.6615,1.6662,1.6663,0,0,0,0,0,0,1.6706,1.6702,1.6694,1.6692,1.6687,1.6671,1.6668,1.6668,1.6649,1.6645,1.6648,1.6646,1.6628,1.6626,1.6626,1.6652,1.6615,1.6615,1.6615,1.6661,1.6662,1.6663,0,0,0,0,0,0,1.6706,1.6705,1.6695,1.6696,1.6694,1.6672,1.6672,1.6668,1.6666,1.6645,1.6641,1.6651,1.6627,1.6625,1.6635,1.665,1.6615,1.6615,1.6659,1.6661,1.6663,1.6704,0,0,0,0,0,0,1.6707,1.6706,1.6714,1.6697,1.6694,1.6704,1.6673,1.6668,1.6666,1.6663,1.6647,1.6643,1.6626,1.6635,1.6635,1.665,1.6615,1.6658,1.666,1.6662,1.6701,1.6706,1.6711,0,0,0,0,0,1.6707,1.6726,1.6715,1.6714,1.6704,1.6705,1.6704,1.6683,1.6668,1.6676,1.6663,1.6644,1.6649,1.6636,1.6636,1.6651,1.6657,1.6659,1.6662,1.6698,1.6705,1.6711,0,0,0,0,0,0,1.6746,1.6724,1.671,1.6725,1.6717,1.6698,1.6708,1.6692,1.6688,1.6685,1.666,1.6657,1.6669,1.6661,1.6647,1.6673,1.665,1.6652,1.6677,1.6684,1.6689,1.6691,1.6615,0,0,0,0,0,1.6756,1.6759,1.6739,1.6754,1.6751,1.673,1.673,1.6715,1.6706,1.6703,1.669,1.6683,1.6682,1.6683,1.6681,1.67,1.6696,1.671,1.6715,1.672,1.6722,1.6732,1.6738,1.6672,1.6672,1.6672,0,0,1.6778,1.6766,1.6769,1.6761,1.6754,1.6757,1.6728,1.6732,1.6735,1.6703,1.6711,1.6702,1.6692,1.6706,1.6711,1.6699,1.674,1.6723,1.6727,1.6727,1.6735,1.6742,1.6747,1.6674,1.6674,1.6673,0,0,1.6818,1.6809,1.682,1.6814,1.6802,1.6789,1.6792,1.6776,1.6768,1.6776,1.6753,1.6756,1.6756,1.675,1.6746,1.6786,1.6768,1.6786,1.6814,1.6823,1.6829,1.6833,1.6847,1.6853,1.6789,1.6789,1.6789,0,1.6845,1.685,1.6828,1.6835,1.6832,1.6804,1.6816,1.681,1.68,1.6799,1.6785,1.6786,1.6777,1.6789,1.6799,1.6797,1.68,1.6787,1.683,1.6834,1.6838,1.6851,1.6856,1.6791,1.6791,1.6791,1.679,0,1.6884,1.6888,1.6898,1.6889,1.6887,1.6896,1.6877,1.6878,1.6864,1.6852,1.6861,1.6849,1.6845,1.6847,1.6833,1.6858,1.6851,1.6834,1.681,1.6847,1.6859,1.6864,1.6794,1.6794,1.6793,1.6792,0,0,1.6947,1.6927,1.6931,1.6927,1.6913,1.6915,1.6923,1.692,1.6922,1.6915,1.6922,1.6923,1.6908,1.6904,1.6889,1.6898,1.693,1.688,1.6879,1.689,1.6957,1.697,1.6976,1.6918,1.6919,1.692,1.6958,0,1.6985,1.6997,1.6978,1.6995,1.6998,1.6972,1.6979,1.6972,1.6961,1.6963,1.6951,1.6952,1.6932,1.693,1.6937,1.6925,1.6943,1.6922,1.6924,1.6924,1.6927,1.6982,1.6995,1.7031,1.6963,1.6963,1.6964,0,1.7029,1.7026,1.7043,1.7029,1.7029,1.7036,1.7032,1.7033,1.7025,1.7016,1.7013,1.6996,1.7003,1.6981,1.6991,1.6976,1.6976,1.6971,1.6972,1.6971,1.6946,1.6983,1.7043,1.7048,1.6971,1.697,1.697,0,1.7074,1.7073,1.7083,1.708,1.7064,1.707,1.7063,1.7054,1.7053,1.7049,1.7049,1.7046,1.7045,1.7043,1.7026,1.7011,1.7038,1.7014,1.7031,1.7032,1.7038,1.7038,1.7098,1.7038,1.7038,1.7038,1.7038,0,1.7117,1.7128,1.7103,1.7109,1.7122,1.7101,1.7114,1.7105,1.7097,1.7101,1.7079,1.7083,1.706,1.7062,1.7049,1.7059,1.7059,1.7052,1.7049,1.7054,1.7055,1.7054,1.7051,1.704,1.7039,1.7039,1.7039,0,1.7168,1.7152,1.7161,1.7146,1.7142,1.7152,1.7139,1.7144,1.7132,1.7138,1.7138,1.712,1.7122,1.7105,1.7103,1.7094,1.711,1.7102,1.7113,1.7111,1.7129,1.7128,1.7191,1.7198,1.7134,1.7134,1.7135,0,1.7197,1.7205,1.7191,1.7192,1.7187,1.7189,1.7189,1.7169,1.7169,1.7161,1.7167,1.7167,1.7166,1.717,1.7156,1.7155,1.7147,1.7169,1.7146,1.7152,1.7147,1.7147,1.7148,1.7174,1.7174,1.7175,1.7176,0,1.7249,1.7241,1.7241,1.7238,1.7238,1.7235,1.7231,1.7233,1.7212,1.7213,1.7215,1.7214,1.7213,1.7213,1.7209,1.7203,1.7186,1.7183,1.7187,1.7193,1.7199,1.7196,1.7126,1.7181,1.7181,1.718,1.718,1.718,1.729,1.7296,1.7287,1.7288,1.7283,1.7279,1.7284,1.7273,1.7274,1.7271,1.726,1.7264,1.7256,1.7249,1.7244,1.7247,1.7236,1.7242,1.7244,1.7245,1.7249,1.7199,1.7247,1.7246,1.7246,1.7246,1.7246,0,1.7341,1.7334,1.7335,1.733,1.7331,1.7315,1.731,1.7312,1.7315,1.7309,1.7309,1.7311,1.7312,1.7299,1.7298,1.7303,1.7295,1.7303,1.7302,1.7301,1.7258,1.7255,1.731,1.731,1.731,1.731,1.731,1.7309,1.7368,1.7378,1.7369,1.7376,1.7369,1.7373,1.7371,1.7368,1.7364,1.7367,1.7367,1.7359,1.7351,1.7349,1.7349,1.7345,1.7346,1.7357,1.7351,1.7311,1.7304,1.7298,1.7295,1.7357,1.7357,1.7393,1.7394,1.7394]}]]